sat.trackr.live / text

‹ back to catalog

STARLINK-34215

NORAD 64252 · 2025-119V

PAYLOAD ACTIVE UNKNOWN

§ Identity

Operator
Country
US
Launch date
2025-06-03
Launch site
AFETR
Launch vehicle
Mass (kg)
RCS (m²)

Purposes: comms

External: N2YO · Heavens-Above · Gunter

§ Orbital elements

Epoch: 2026-09-20T12:05:16.933344Z

Period
94.27 min
Inclination
43.0026°
Eccentricity
0.0001924
Mean motion
15.27586964 rev/d
Perigee alt
481.7 km
Apogee alt
484.3 km
Semi-major
6,861.2 km
B*
5.3237e-4
RAAN
286.8418°
Arg perigee
278.5633°
Mean anomaly
81.5000°
Rev number
7,396

§ Raw data

STARLINK-342151 64252U 25119V   26263.50366821  .00014419  00000+0  53237-3 0  99982 64252  43.0026 286.8418 0001924 278.5633  81.5000 15.27586964 73965

JSON: /api/v1/satellites/64252 · /tle

For live sub-satellite position, see the globe view (requires WebGL).

§ Visibility from observer

Set your observer location to see the next 7 days of passes ≥ 10°. The values pass through the URL so the page stays shareable.

No JS? Fill the form by hand. The geolocation button needs JavaScript.